#timestamp,LO_Frequency,Hit,StdDev 
1509174015.6,286047000.4,N
1509174035.5,286047000.7,N
1509174055.3,286046998.6,Y
1509174075.1,286046999.1,P
1509174095.9,286046999.4,N
1509174115.7,286046997.3,P
1509174135.5,286046999.1,N
1509174155.4,286046999.2,N
1509174175.2,286046998.4,N
1509174195.1,286046998.8,N
1509174196.0,286046998.8,N
1509174215.8,286046999.0,N
1509174235.6,286046998.3,N
1509174255.5,286046998.7,N
1509174275.3,286046999.0,N
1509174295.2,286046997.8,Y
1509174315.9,286046996.9,P
1509174335.7,286046999.3,N
1509174355.6,286046999.5,N
1509174375.4,286046997.1,N
1509174395.2,286046997.5,N
1509174415.1,286046998.0,N
1509174416.0,286046998.0,N
1509174435.8,286046997.8,N
1509174455.7,286046996.8,Y
1509174475.5,286046996.8,P
1509174495.3,286046997.7,P
1509174515.2,286046996.5,P
1509174535.0,286046998.6,N
1509174535.9,286046998.6,N
1509174555.7,286046998.7,N
1509174575.6,286046996.9,Y
1509174595.4,286046998.2,P
1509174615.3,286046998.2,P
1509174635.1,286047001.0,P
1509174655.8,286047000.9,N
1509174675.7,286047000.5,N
1509174695.5,286047001.0,N
1509174715.4,286046998.9,N
1509174735.2,286046999.5,N
1509174755.0,286046997.9,N
1509174755.9,286046997.9,N
1509174775.8,286046995.2,Y
1509174795.6,286046998.0,P
1509174815.4,286046997.8,P
1509174835.3,286046996.5,P
1509174855.1,286046998.5,N
1509174875.9,286046996.9,Y
1509174895.7,286046998.1,P
1509174915.5,286046998.1,P
1509174935.4,286047000.3,P
1509174955.2,286047000.6,N
1509174975.0,286047000.6,N
1509174976.0,286047000.6,N
1509174995.8,286047000.1,N
1509175015.6,286047000.3,N
1509175035.5,286047000.7,N
1509175055.3,286047001.0,N
1509175075.1,286047000.5,N
1509175095.9,286047000.6,N
1509175115.7,286046998.9,N
1509175135.6,286046998.6,N
1509175155.4,286046999.5,N
1509175175.2,286046999.4,N
1509175195.1,286046999.0,N
1509175196.0,286046999.0,N
1509175215.8,286046996.9,Y
1509175235.7,286046996.7,P
1509175255.5,286046996.8,N
1509175275.3,286046997.3,N
1509175295.2,286046998.9,N
1509175315.9,286046999.2,N
1509175335.7,286046999.5,N
1509175355.6,286046999.6,N
1509175375.4,286046997.6,N
1509175395.3,286046999.6,N
1509175415.1,286046997.4,N
1509175416.0,286046997.4,N
1509175435.8,286046997.2,N
1509175455.7,286046996.5,Y
1509175475.5,286046998.1,P
1509175495.3,286047000.6,P
1509175515.2,286046999.0,N
1509175535.0,286046999.1,N
1509175535.9,286046999.1,N
1509175555.8,286046998.8,N
1509175575.6,286046998.2,N
1509175595.4,286046999.3,N
1509175615.3,286047001.0,N
1509175635.1,286046998.2,N
1509175655.9,286047001.2,N
1509175675.7,286047001.0,N
1509175695.5,286047000.4,N
1509175715.4,286047000.2,N
1509175735.2,286047000.1,N
1509175755.0,286047000.0,N
1509175755.9,286047000.0,N
1509175775.8,286047000.2,N
1509175795.6,286047000.2,N
1509175815.5,286046999.8,N
1509175835.3,286047001.5,N
1509175855.1,286047002.7,N
1509175875.9,286047004.3,Y
1509175895.7,286047003.9,P
1509175915.5,286047004.4,N
1509175935.4,286047004.3,N
1509175955.2,286047004.3,N
1509175975.1,286047003.5,N
1509175976.0,286047003.5,N
1509175995.8,286047005.9,Y
1509176015.6,286047000.0,P
1509176035.5,286047002.1,N
1509176055.3,286047002.7,N
1509176075.1,286047002.2,N
1509176095.9,286047004.3,Y
1509176115.7,286046998.7,P
1509176135.6,286046999.3,N
1509176155.4,286047001.1,N
1509176175.2,286046999.6,N
1509176195.1,286046999.5,N
1509176196.0,286046999.5,N
1509176215.8,286046999.6,N
1509176235.7,286046997.1,N
1509176255.5,286046997.7,N
1509176275.3,286046996.7,N
1509176295.2,286046999.5,N
1509176315.0,286046996.8,N
1509176315.9,286046996.8,N
1509176335.8,286046996.6,N
1509176355.6,286046996.8,N
1509176375.4,286046995.5,N
1509176395.3,286046996.2,N
1509176415.1,286046997.4,N
1509176435.8,286046999.4,N
1509176455.7,286046997.3,N
1509176475.5,286046995.4,N
1509176495.4,286046995.5,N
1509176515.2,286046995.3,N
1509176535.0,286046995.5,N
1509176535.9,286046995.5,N
1509176555.8,286046995.8,N
1509176575.6,286046995.5,N
1509176595.5,286046997.0,N
1509176615.3,286046997.8,N
1509176635.1,286046999.5,N
1509176655.9,286046999.6,N
1509176675.7,286046999.1,N
1509176695.5,286046996.5,N
1509176715.4,286046999.2,N
1509176735.2,286046999.4,N
1509176755.1,286047001.2,N
1509176756.0,286047001.2,N
1509176775.8,286047000.9,N
1509176795.6,286046998.3,N
1509176815.5,286046998.7,N
1509176835.3,286046998.2,N
1509176855.1,286047001.1,N
1509176875.9,286047000.8,N
1509176895.7,286047001.2,N
1509176915.6,286046996.5,N
1509176935.4,286047000.8,N
1509176955.2,286047000.4,N
1509176975.1,286047001.1,N
1509176976.0,286047001.1,N
1509176995.8,286047002.8,N
1509177015.7,286047002.7,N
1509177035.5,286047002.8,N
1509177055.3,286047002.3,N
1509177075.2,286047002.8,N
1509177095.0,286047001.2,N
1509177095.9,286047001.2,N
1509177115.8,286046998.9,N
1509177135.6,286046998.4,N
1509177155.4,286047000.3,N
1509177175.3,286047002.6,N
1509177195.1,286047000.2,N
1509177215.9,286047002.7,N
1509177235.7,286047000.1,N
1509177255.5,286047000.1,N
1509177275.4,286046999.7,N
1509177295.2,286047002.0,N
1509177315.0,286047001.5,N
1509177316.0,286047001.5,N
1509177335.8,286047002.6,N
1509177355.6,286047002.7,N
1509177375.5,286047002.7,N
1509177395.3,286047001.9,N
1509177415.1,286047001.7,N
1509177435.9,286047002.8,N
1509177455.7,286046999.9,N
1509177475.6,286047000.4,N
1509177495.4,286047002.8,N
1509177515.2,286047001.6,N
1509177535.1,286047003.6,N
1509177536.0,286047003.6,N
1509177555.8,286046999.7,N
1509177575.7,286047002.4,N
1509177595.5,286047000.9,N
